User: anonymous   Login
Location: Peebles
(55.6412°N, 3.1714°W)
Time: 02:23:17
(UTC+00:00)
Language:

Cosmos 2074 Rocket - Orbit

View from above orbital plane
View from above orbital plane
View from above satellite
View from above satellite

Ground track
Ground track

The orbit data is extracted from the following two-line orbital elements,

1 20578U 90036B   21333.47849634  .00000027  00000-0  12167-4 0  9997
2 20578  82.9453 232.5227 0014078 106.7385  66.5080 13.76404456587407
Epoch (UTC): 29 November 2021 11:29:02
Eccentricity: 0.0014078
inclination: 82.9453°
perigee height: 966 km
apogee height: 987 km
right ascension of ascending node: 232.5227°
argument of perigee: 106.7385°
revolutions per day: 13.76404456
mean anomaly at epoch: 66.5080°
orbit number at epoch: 58740

The dashed part of the orbit path shows where the satellite is in the earth's shadow,  

DLR